Location: Newark
(13.8117°N, 3.6025°W)
Time: 14:11:10
(UTC+00:00)

Hubble Space Telescope - Pass Details

Date: 25 August 2019
Orbit: 536 x 540 km, 28.5° (Epoch: 21 September)

Event Time Altitude Azimuth Distance (km) Brightness Sun altitude
Rises 20:53:45 0° 287° (WNW) 2,664 5.4 -34.1°
Reaches altitude 10° 20:56:05 10° 280° (W) 1,774 4.2 -34.6°
Enters shadow 20:56:41 14° 277° (W) 1,552 3.8 -34.8°
